SCP
0 0 0 0 0 0 0 0 0 0 0 0 0 0 -0 -0 -0 -0 0 0 0 0 0 0 0 0 0 0 0 0 -0 -0 0 -0 -0 0 0 0 0 0 0 0 0 0 -0 -0 -0
0 0 0 0 0 0 0 0 0 0 0 0 0 0 0 -0 -0 -0 0 0 0 0 0 0 0 0 0 0 0 0 0 0 -0 -0 0 0 0 0 0 0 0 0 -0 -0 0 0 0
0 0 0 0 0 0 0 0 0 0 0 0 0 0 -0 -0 -0 -0 0 0 0 0 0 0 0 0 0 0 -0 -0 0 0 0 -0 0 0 0 0 0 0 0 -0 -0 -0 -0 0 0
0 0 0 0 0 0 0 0 0 0 0 0 0 0 -0 -0 -0 0 0 0 0 -0 -0 0 -0 0 0 -0 -0 0 -0 0 0 -0 -0 0 0 0 -0 0 -0 -0 0 0 -0 0 0
0 0 0 0 0 0 0 0 0 0 0 0 0 -0 -0 -0 -0 0 0 0 -0 -0 -0 0 0 0 0 0 0 -0 -0 0 0 0 -0 0 0 0 0 0 0 0 0 0 0 0 -0
0 0 0 0 0 0 0 0 0 0 0 0 0 0 0 0 0 0 0 -0 0 -0 -0 0 0 0 0 0 -0 0 -0 -0 -0 -0 -0 -0 -0 0 0 0 0 0 0 0 0 0 0
0 0 0 0 0 0 0 0 0 0 0 0 0 0 -0 -0 0 0 0 -0 0 0 -0 0 0 0 0 0 -0 -0 -0 -0 -0 -0 0 -0 0 0 0 -0 0 0 0 0 0 0 0
0 0 0 0 0 0 0 0 0 0 0 0 0 0 -0 0 -0 0 -0 0 -0 0 0 0 -0 -0 -0 -0 0 0 -0 -0 -0 0 0 0 0 0 -0 -0 0 0 0 0 0 0 0
0 0 0 0 0 0 0 0 0 0 0 0 0 0 0 0 0 -0 -0 -0 0 0 0 0 0 -0 -0 -0 0 -0 -0 -0 -0 0 0 0 0 0 -0 0 0 -0 0 0 0 0 0
0 0 0 0 0 0 0 0 0 0 0 0 0 0 0 -0 0 0 0 0 0 -0 0 0 0 -0 -0 -0 0 0 -0 -0 -0 0 0 0 0 -0 0 0 0 0 -0 0 0 0 0
0 0 0 0 0 0 0 0 0 0 0 0 0 0 0 0 0 0 0 0 0 0 0 0 0 -0 -0 0 -0 0 0 0 0 0 0 0 0 0 0 0 0 0 0 0 0 0 0
0 0 0 0 0 0 0 0 0 0 0 0 0 0 0 0 0 0 0 0 0 0 0 0 0 0 0 -0 -0 -0 0 0 0 0 0 0 0 0 -0 0 0 -0 0 0 0 0 0
0 0 0 0 0 0 0 0 0 0 0 0 0 0 0 0 0 0 0 0 0 0 0 0 0 0 -0 -0 -0 -0 -0 -0 -0 0 0 0 0 0 0 0 0 0 0 0 0 0 0
0 0 0 0 0 0 0 0 0 0 0 0 0 0 0 0 0 0 0 0 0 0 0 0 0 0 0 0 0 0 0 0 -0 0 0 0 0 0 -0 0 0 0 0 -0 -0 0 0
0 0 0 0 0 0 0 0 0 0 0 0 0 0 0 0 0 0 0 0 0 0 0 0 0 0 0 0 0 0 0 0 -0 0 0 0 0 0 0 0 0 0 0 0 0 0 0
0 0 0 0 0 0 0 0 0 0 0 0 0 0 0 0 0 0 0 0 0 0 0 0 0 0 0 0 0 0 0 0 0 0 0 0 0 0 0 0 -0 0 0 0 0 0 0
0 0 0 0 0 0 0 0 0 0 0 0 0 0 0 0 0 0 0 0 0 0 0 0 0 0 0 0 0 0 0 0 0 0 0 0 0 0 0 0 0 0 0 0 0 0 0
0 0 0 0 0 0 0 0 0 0 0 0 0 0 0 0 0 0 0 0 0 0 0 0 0 0 0 0 0 0 0 0 0 0 0 0 0 0 0 0 0 0 0 0 0 0 0
0 0 0 0 0 0 0 0 0 0 0 0 0 0 0 0 0 0 0 0 0 0 0 0 0 0 0 0 0 0 0 0 0 0 0 0 0 0 0 0 0 0 0 0 0 0 0
0 0 0 0 0 0 0 0 0 0 0 0 0 0 0 0 0 0 0 0 0 0 0 0 0 0 0 0 0 0 0 0 0 0 0 0 0 0 0 0 0 0 0 0 0 0 0
0 0 0 0 0 0 0 0 0 0 0 0 0 0 0 0 0 0 0 0 0 0 0 0 0 0 0 0 0 0 0 0 0 0 0 0 0 0 0 0 0 0 0 0 0 0 0
0 0 0 0 0 0 0 0 0 0 0 0 0 0 0 0 0 0 0 0 0 0 0 0 0 0 0 0 0 0 0 0 0 0 0 0 0 0 0 0 0 0 0 0 0 0 0
0 0 0 0 0 0 0 0 0 0 0 0 0 0 0 0 0 0 0 0 0 0 0 0 0 0 0 0 0 0 0 0 0 0 0 0 0 0 0 0 0 0 0 0 0 0 0
0 0 0 0 0 0 0 0 0 0 0 0 0 0 0 0 0 0 0 0 0 0 0 0 0 0 0 0 0 0 0 0 0 0 0 0 0 0 0 0 0 0 0 0 0 0 0
0 0 0 0 0 0 0 0 0 0 0 0 0 0 0 0 0 0 0 0 0 0 0 0 0 0 0 0 0 0 0 0 0 0 0 0 0 0 0 0 0 0 0 0 0 0 0
0 0 0 0 0 0 0 0 0 0 0 0 0 0 0 0 0 0 0 0 0 0 0 0 0 0 0 0 0 0 0 0 0 0 0 0 0 0 0 0 0 0 0 0 0 0 0
0 0 0 0 0 0 0 0 0 0 0 0 0 0 0 0 0 0 0 0 0 0 0 0 0 0 0 0 0 0 0 0 0 0 0 0 0 0 0 0 0 0 0 0 0 0 0
0 0 0 0 0 0 0 0 0 0 0 0 0 0 0 0 0 0 0 0 0 0 0 0 0 0 0 0 0 0 0 0 0 0 0 0 0 0 0 0 0 0 0 0 0 0 0
0 0 0 0 0 0 0 0 0 0 0 0 0 0 0 0 0 0 0 0 0 0 0 0 0 0 0 0 0 0 0 0 0 0 0 0 0 0 0 0 0 0 0 0 0 0 0
Wind_Speed_500mb
8 7 12 11 12 13 15 17 22 23 24 26 26 26 27 28 26 28 26 21 17 15 12 5 4 2 5 9 9 8 10 11 14 28 23 17 10 9 9 9 13 9 8 12 19 18 22
8 8 7 9 12 14 16 18 19 21 23 24 26 27 27 28 26 25 21 17 17 12 4 3 4 5 7 9 12 10 12 13 21 25 18 11 7 8 12 6 7 9 14 21 17 9 15
7 8 9 10 12 15 17 19 21 22 25 25 26 29 29 27 25 21 16 13 15 12 8 5 6 4 9 10 13 13 15 16 20 15 7 6 6 6 2 6 2 4 12 13 8 3 5
8 8 10 12 14 15 17 19 21 22 25 26 27 29 30 27 22 18 13 15 12 6 11 8 5 6 7 16 11 7 13 13 13 7 3 1 7 2 2 3 4 4 2 3 13 15 6
8 9 10 13 15 16 17 20 22 23 25 26 28 29 30 27 20 14 17 16 6 3 5 7 5 7 9 6 5 11 14 12 9 9 4 5 2 3 4 3 2 5 2 6 5 22 3
9 10 10 12 15 16 18 20 22 24 26 27 28 29 29 25 17 12 18 8 7 4 2 4 5 7 7 5 12 14 15 9 7 5 7 3 4 2 4 4 8 3 4 6 7 9 27
11 10 12 12 15 17 19 21 23 25 26 28 29 29 29 23 13 9 17 8 9 4 10 5 5 3 6 12 15 21 17 8 5 5 3 4 3 9 3 5 5 5 3 8 6 4 13
12 12 14 15 15 18 21 22 26 27 28 29 29 29 28 23 7 5 11 8 11 10 11 9 14 11 8 6 10 16 17 6 4 3 1 3 9 2 2 7 8 5 5 3 6 22 7
15 15 15 17 18 19 21 23 26 28 29 30 30 29 26 21 3 1 8 11 13 14 3 7 2 6 8 14 7 18 21 11 4 1 2 1 7 4 7 11 7 6 5 2 3 7 6
17 17 17 19 19 21 23 25 27 29 31 31 31 30 26 17 3 5 3 10 13 15 4 1 5 7 13 10 6 14 22 7 3 3 5 4 6 4 7 6 2 4 11 6 7 9 4
20 20 19 20 21 22 25 27 29 31 31 31 30 29 24 15 9 7 3 11 15 7 5 4 4 9 13 7 13 9 23 5 5 3 3 7 11 11 12 7 6 2 3 5 8 5 4
21 21 21 22 24 24 26 28 30 32 33 31 28 29 23 16 9 11 7 14 4 0 5 5 8 9 9 2 4 11 8 7 5 4 2 3 5 4 6 4 5 11 5 7 6 1 3
25 22 22 22 25 26 27 29 31 34 35 32 28 26 23 15 4 13 9 6 1 4 3 3 4 6 5 7 5 6 11 11 5 6 4 4 4 7 5 2 4 4 2 5 2 1 4
28 26 24 23 24 27 28 30 32 35 37 35 28 21 18 15 11 15 7 3 5 1 2 3 3 7 6 5 4 4 11 10 3 7 3 1 7 7 12 6 5 8 3 4 5 3 4
32 29 28 25 24 26 28 30 33 35 38 37 26 14 11 10 16 19 8 3 6 8 2 5 4 7 4 4 1 4 4 5 6 10 9 7 5 2 11 9 4 5 1 3 6 2 6
35 33 31 28 25 25 26 29 32 34 37 37 27 8 5 12 20 18 4 5 5 6 7 3 3 1 7 4 8 5 5 3 5 5 4 9 6 0 2 5 19 5 9 4 3 5 7
38 36 34 31 28 26 25 27 31 33 35 32 20 0 4 21 16 7 5 7 7 12 7 4 5 5 5 7 6 6 6 5 5 5 5 7 4 6 5 5 3 3 3 7 2 3 9
39 39 36 34 29 28 25 25 27 32 32 26 9 2 2 23 4 2 4 7 3 5 4 5 5 4 4 4 5 4 7 3 9 5 8 3 4 5 3 9 5 4 5 6 6 5 0
41 41 39 37 33 28 25 22 22 26 30 31 20 4 4 23 6 4 4 3 3 5 5 2 3 2 4 5 5 2 6 3 12 5 8 11 2 7 7 5 5 4 5 7 8 2 10
42 42 42 38 36 31 25 22 18 18 20 22 9 2 4 6 6 6 4 2 2 6 1 4 4 3 6 4 6 8 5 8 6 9 10 5 5 5 13 4 3 7 11 12 6 7 8
44 44 43 42 36 35 27 22 17 13 13 12 5 2 2 3 5 5 2 1 1 3 9 9 4 3 8 6 3 5 3 6 7 4 6 2 5 4 4 5 6 10 17 18 21 17 15
50 45 45 43 39 36 29 24 18 11 7 4 1 4 5 4 2 5 4 2 2 3 7 4 5 3 3 7 5 12 9 6 3 5 5 4 5 4 6 6 13 21 25 23 25 24 28
55 47 45 45 43 38 32 27 20 13 6 4 5 4 4 4 3 5 4 4 4 1 4 7 2 4 7 5 9 12 9 9 6 5 6 3 9 7 16 1 6 18 33 36 30 22 21
63 53 45 45 44 41 35 30 23 16 11 9 9 8 4 4 2 4 6 2 4 5 1 5 6 2 6 12 13 9 7 4 1 3 3 10 9 6 8 4 21 8 8 14 22 26 24
66 58 46 46 45 42 38 32 26 20 15 11 11 8 7 5 3 5 7 2 2 4 3 1 6 6 14 7 3 2 1 2 1 7 1 2 7 6 9 18 24 27 11 7 13 27 21
59 61 48 44 45 43 39 34 29 23 18 15 12 11 7 10 9 8 7 2 3 3 4 3 5 7 6 4 3 9 9 3 6 4 12 8 4 10 7 10 13 4 3 17 3 22 13
56 65 60 43 44 43 40 36 31 27 22 18 15 13 8 5 12 12 5 5 8 4 2 1 1 5 5 5 7 9 11 3 10 10 9 7 5 16 18 16 14 10 11 7 13 8 10
61 66 64 47 44 43 40 37 33 30 25 22 19 16 11 6 11 13 12 10 9 7 5 6 6 5 3 9 8 7 9 11 7 4 8 13 10 9 6 11 18 3 3 10 6 5 6
61 58 66 55 43 43 40 38 35 32 27 23 19 17 13 7 5 10 16 21 16 12 6 8 1 3 5 5 4 3 5 5 6 9 3 10 10 7 13 5 2 5 6 4 1 3 4
Wind_Direction_500mb
347 359 349 351 339 349 343 345 346 347 346 344 341 338 341 339 340 337 340 339 330 323 325 348 2 84 131 122 97 108 105 101 127 142 143 134 120 128 134 159 157 220 254 210 250 252 246
329 349 355 342 334 347 348 345 344 346 344 346 340 338 340 341 344 341 347 348 349 346 17 49 63 123 131 118 122 107 110 96 134 146 142 114 75 109 114 161 209 209 263 273 278 258 236
335 337 344 342 346 352 344 345 346 346 343 348 340 341 341 344 347 344 344 346 3 28 58 64 78 114 151 127 133 115 119 102 119 137 119 75 45 49 114 143 235 280 294 298 222 233 300
326 332 335 343 343 346 347 348 347 347 347 346 342 344 343 344 347 345 339 327 330 29 48 52 55 105 111 149 157 133 130 112 105 97 85 133 20 225 129 120 18 281 258 348 63 349 49
324 334 338 339 341 343 345 343 349 349 348 347 345 346 343 343 346 339 343 331 322 329 355 14 71 77 114 124 149 154 141 115 64 46 140 216 154 104 100 174 181 24 65 348 72 42 313
322 329 332 336 337 339 345 342 346 346 349 348 344 345 340 344 345 345 351 326 328 344 359 26 73 125 102 96 121 147 146 135 100 75 109 142 93 122 114 207 100 55 27 299 288 48 52
307 319 323 328 332 335 340 340 343 342 347 344 343 346 341 344 346 360 7 350 349 342 317 237 247 264 109 105 105 147 156 155 116 76 80 20 147 51 32 211 148 126 265 302 355 97 59
293 305 312 322 329 332 334 339 337 340 341 341 342 344 343 344 353 25 25 53 26 333 315 300 238 233 206 156 129 148 166 138 134 149 89 196 51 174 120 148 166 184 260 141 78 115 66
292 299 310 314 320 327 330 333 334 334 336 337 339 338 344 340 306 173 51 41 347 348 287 308 160 186 177 177 145 176 179 177 152 171 91 345 38 301 157 151 166 186 201 203 115 132 88
284 289 297 306 314 321 325 330 331 331 332 332 332 331 341 342 267 185 71 360 342 334 28 355 226 178 174 151 107 171 176 163 104 29 167 282 334 80 140 97 205 142 210 214 167 197 351
282 286 293 301 310 318 322 327 329 328 326 326 325 323 331 327 273 202 268 329 318 323 104 144 138 158 158 153 137 161 181 156 106 104 240 43 4 31 66 360 225 37 130 353 27 64 187
274 282 291 299 306 313 319 326 327 326 324 322 320 316 318 321 285 215 268 331 318 321 130 141 144 161 143 128 101 123 143 117 89 100 342 329 293 3 13 60 34 143 110 76 78 21 150
270 275 282 292 300 310 318 324 327 328 325 323 318 307 300 308 270 202 256 313 2 207 346 92 148 163 167 153 171 150 154 171 175 150 51 350 34 339 18 149 120 158 168 310 246 108 49
266 270 276 286 297 307 315 323 328 331 330 325 320 299 286 283 227 202 231 66 227 232 296 335 67 106 158 162 155 130 137 171 137 127 142 270 133 7 348 42 355 38 354 309 299 283 24
263 265 271 278 289 300 311 320 326 333 333 328 329 300 281 245 203 191 171 172 225 204 357 314 111 127 136 124 112 140 170 175 160 191 181 176 136 20 57 52 318 118 98 77 107 101 256
262 263 265 271 280 292 305 316 326 334 336 333 334 316 186 146 155 169 115 233 242 238 329 244 135 146 145 133 166 170 169 50 143 200 253 172 166 132 125 214 59 26 115 202 178 246 283
259 260 262 266 274 284 298 313 324 334 339 337 332 14 170 155 146 160 195 221 258 261 251 244 147 123 130 135 128 143 144 70 16 74 119 146 239 150 205 39 320 140 162 45 20 286 277
256 256 259 262 266 277 289 305 322 336 345 342 350 208 269 170 113 28 182 195 286 298 286 239 117 109 140 133 108 126 148 64 344 176 149 97 118 128 40 326 263 242 143 160 254 244 70
254 252 252 256 260 265 277 293 316 336 351 353 342 286 45 177 177 194 250 253 261 335 347 9 125 48 59 97 114 117 97 17 13 86 153 171 84 151 139 154 189 224 132 108 102 150 212
253 250 249 248 255 257 267 282 301 328 345 350 346 254 48 151 107 143 154 39 321 1 121 25 102 115 117 105 38 139 132 25 28 84 94 125 132 222 267 342 103 207 203 183 211 223 234
252 249 246 245 244 252 254 267 281 313 334 344 348 80 90 90 64 92 57 120 90 17 5 21 92 93 143 136 120 138 162 151 81 45 56 39 204 209 252 252 219 254 248 212 224 241 238
248 248 244 242 239 244 247 251 262 280 307 305 261 174 118 92 80 134 353 90 112 28 2 19 136 109 72 162 191 184 168 211 160 83 79 11 174 175 258 218 228 250 255 246 238 241 246
241 245 242 239 237 236 239 242 245 254 265 215 196 164 130 5 98 153 143 139 112 327 76 36 50 112 93 77 76 84 83 97 124 161 128 149 150 169 265 329 286 264 242 244 245 241 244
236 237 240 235 232 232 231 233 234 234 227 213 209 183 158 147 181 137 146 100 74 19 339 27 42 96 130 126 102 83 63 11 196 85 76 147 154 178 272 252 257 293 307 264 259 264 243
231 230 235 229 227 225 225 224 224 223 215 205 195 184 170 140 156 174 168 108 1 33 113 48 37 103 144 143 115 106 120 265 96 52 270 182 157 198 249 251 287 279 258 255 255 275 258
239 225 226 225 222 219 219 217 215 213 208 198 188 180 175 143 206 138 148 152 180 160 146 125 94 144 147 78 161 205 236 202 211 176 56 126 203 225 173 243 263 63 123 348 302 270 301
228 222 219 223 219 214 213 211 210 207 204 201 199 195 174 143 169 160 168 163 158 137 163 237 174 158 155 150 187 214 231 197 225 219 192 160 164 214 222 244 268 254 306 310 238 325 345
222 224 214 215 217 211 209 207 204 202 199 199 200 196 186 179 179 198 201 181 160 177 189 145 156 191 119 190 209 190 225 200 209 218 199 225 205 203 194 236 265 77 185 231 3 356 326
224 222 209 206 213 207 204 203 200 196 196 197 202 202 200 209 198 190 219 226 217 205 170 197 230 152 160 141 196 145 190 193 203 230 169 237 238 249 219 248 54 260 247 202 93 330 342
Wind_Speed_850mb
8 7 12 11 12 13 15 17 22 23 24 26 26 26 27 28 26 28 26 21 17 15 12 5 4 2 5 9 9 8 10 11 14 28 23 17 10 9 9 9 13 9 8 12 19 18 22
8 8 7 9 12 14 16 18 19 21 23 24 26 27 27 28 26 25 21 17 17 12 4 3 4 5 7 9 12 10 12 13 21 25 18 11 7 8 12 6 7 9 14 21 17 9 15
7 8 9 10 12 15 17 19 21 22 25 25 26 29 29 27 25 21 16 13 15 12 8 5 6 4 9 10 13 13 15 16 20 15 7 6 6 6 2 6 2 4 12 13 8 3 5
8 8 10 12 14 15 17 19 21 22 25 26 27 29 30 27 22 18 13 15 12 6 11 8 5 6 7 16 11 7 13 13 13 7 3 1 7 2 2 3 4 4 2 3 13 15 6
8 9 10 13 15 16 17 20 22 23 25 26 28 29 30 27 20 14 17 16 6 3 5 7 5 7 9 6 5 11 14 12 9 9 4 5 2 3 4 3 2 5 2 6 5 22 3
9 10 10 12 15 16 18 20 22 24 26 27 28 29 29 25 17 12 18 8 7 4 2 4 5 7 7 5 12 14 15 9 7 5 7 3 4 2 4 4 8 3 4 6 7 9 27
11 10 12 12 15 17 19 21 23 25 26 28 29 29 29 23 13 9 17 8 9 4 10 5 5 3 6 12 15 21 17 8 5 5 3 4 3 9 3 5 5 5 3 8 6 4 13
12 12 14 15 15 18 21 22 26 27 28 29 29 29 28 23 7 5 11 8 11 10 11 9 14 11 8 6 10 16 17 6 4 3 1 3 9 2 2 7 8 5 5 3 6 22 7
15 15 15 17 18 19 21 23 26 28 29 30 30 29 26 21 3 1 8 11 13 14 3 7 2 6 8 14 7 18 21 11 4 1 2 1 7 4 7 11 7 6 5 2 3 7 6
17 17 17 19 19 21 23 25 27 29 31 31 31 30 26 17 3 5 3 10 13 15 4 1 5 7 13 10 6 14 22 7 3 3 5 4 6 4 7 6 2 4 11 6 7 9 4
20 20 19 20 21 22 25 27 29 31 31 31 30 29 24 15 9 7 3 11 15 7 5 4 4 9 13 7 13 9 23 5 5 3 3 7 11 11 12 7 6 2 3 5 8 5 4
21 21 21 22 24 24 26 28 30 32 33 31 28 29 23 16 9 11 7 14 4 0 5 5 8 9 9 2 4 11 8 7 5 4 2 3 5 4 6 4 5 11 5 7 6 1 3
25 22 22 22 25 26 27 29 31 34 35 32 28 26 23 15 4 13 9 6 1 4 3 3 4 6 5 7 5 6 11 11 5 6 4 4 4 7 5 2 4 4 2 5 2 1 4
28 26 24 23 24 27 28 30 32 35 37 35 28 21 18 15 11 15 7 3 5 1 2 3 3 7 6 5 4 4 11 10 3 7 3 1 7 7 12 6 5 8 3 4 5 3 4
32 29 28 25 24 26 28 30 33 35 38 37 26 14 11 10 16 19 8 3 6 8 2 5 4 7 4 4 1 4 4 5 6 10 9 7 5 2 11 9 4 5 1 3 6 2 6
35 33 31 28 25 25 26 29 32 34 37 37 27 8 5 12 20 18 4 5 5 6 7 3 3 1 7 4 8 5 5 3 5 5 4 9 6 0 2 5 19 5 9 4 3 5 7
38 36 34 31 28 26 25 27 31 33 35 32 20 0 4 21 16 7 5 7 7 12 7 4 5 5 5 7 6 6 6 5 5 5 5 7 4 6 5 5 3 3 3 7 2 3 9
39 39 36 34 29 28 25 25 27 32 32 26 9 2 2 23 4 2 4 7 3 5 4 5 5 4 4 4 5 4 7 3 9 5 8 3 4 5 3 9 5 4 5 6 6 5 0
41 41 39 37 33 28 25 22 22 26 30 31 20 4 4 23 6 4 4 3 3 5 5 2 3 2 4 5 5 2 6 3 12 5 8 11 2 7 7 5 5 4 5 7 8 2 10
42 42 42 38 36 31 25 22 18 18 20 22 9 2 4 6 6 6 4 2 2 6 1 4 4 3 6 4 6 8 5 8 6 9 10 5 5 5 13 4 3 7 11 12 6 7 8
44 44 43 42 36 35 27 22 17 13 13 12 5 2 2 3 5 5 2 1 1 3 9 9 4 3 8 6 3 5 3 6 7 4 6 2 5 4 4 5 6 10 17 18 21 17 15
50 45 45 43 39 36 29 24 18 11 7 4 1 4 5 4 2 5 4 2 2 3 7 4 5 3 3 7 5 12 9 6 3 5 5 4 5 4 6 6 13 21 25 23 25 24 28
55 47 45 45 43 38 32 27 20 13 6 4 5 4 4 4 3 5 4 4 4 1 4 7 2 4 7 5 9 12 9 9 6 5 6 3 9 7 16 1 6 18 33 36 30 22 21
63 53 45 45 44 41 35 30 23 16 11 9 9 8 4 4 2 4 6 2 4 5 1 5 6 2 6 12 13 9 7 4 1 3 3 10 9 6 8 4 21 8 8 14 22 26 24
66 58 46 46 45 42 38 32 26 20 15 11 11 8 7 5 3 5 7 2 2 4 3 1 6 6 14 7 3 2 1 2 1 7 1 2 7 6 9 18 24 27 11 7 13 27 21
59 61 48 44 45 43 39 34 29 23 18 15 12 11 7 10 9 8 7 2 3 3 4 3 5 7 6 4 3 9 9 3 6 4 12 8 4 10 7 10 13 4 3 17 3 22 13
56 65 60 43 44 43 40 36 31 27 22 18 15 13 8 5 12 12 5 5 8 4 2 1 1 5 5 5 7 9 11 3 10 10 9 7 5 16 18 16 14 10 11 7 13 8 10
61 66 64 47 44 43 40 37 33 30 25 22 19 16 11 6 11 13 12 10 9 7 5 6 6 5 3 9 8 7 9 11 7 4 8 13 10 9 6 11 18 3 3 10 6 5 6
61 58 66 55 43 43 40 38 35 32 27 23 19 17 13 7 5 10 16 21 16 12 6 8 1 3 5 5 4 3 5 5 6 9 3 10 10 7 13 5 2 5 6 4 1 3 4
Wind_Direction_850mb
347 359 349 351 339 349 343 345 346 347 346 344 341 338 341 339 340 337 340 339 330 323 325 348 2 84 131 122 97 108 105 101 127 142 143 134 120 128 134 159 157 220 254 210 250 252 246
329 349 355 342 334 347 348 345 344 346 344 346 340 338 340 341 344 341 347 348 349 346 17 49 63 123 131 118 122 107 110 96 134 146 142 114 75 109 114 161 209 209 263 273 278 258 236
335 337 344 342 346 352 344 345 346 346 343 348 340 341 341 344 347 344 344 346 3 28 58 64 78 114 151 127 133 115 119 102 119 137 119 75 45 49 114 143 235 280 294 298 222 233 300
326 332 335 343 343 346 347 348 347 347 347 346 342 344 343 344 347 345 339 327 330 29 48 52 55 105 111 149 157 133 130 112 105 97 85 133 20 225 129 120 18 281 258 348 63 349 49
324 334 338 339 341 343 345 343 349 349 348 347 345 346 343 343 346 339 343 331 322 329 355 14 71 77 114 124 149 154 141 115 64 46 140 216 154 104 100 174 181 24 65 348 72 42 313
322 329 332 336 337 339 345 342 346 346 349 348 344 345 340 344 345 345 351 326 328 344 359 26 73 125 102 96 121 147 146 135 100 75 109 142 93 122 114 207 100 55 27 299 288 48 52
307 319 323 328 332 335 340 340 343 342 347 344 343 346 341 344 346 360 7 350 349 342 317 237 247 264 109 105 105 147 156 155 116 76 80 20 147 51 32 211 148 126 265 302 355 97 59
293 305 312 322 329 332 334 339 337 340 341 341 342 344 343 344 353 25 25 53 26 333 315 300 238 233 206 156 129 148 166 138 134 149 89 196 51 174 120 148 166 184 260 141 78 115 66
292 299 310 314 320 327 330 333 334 334 336 337 339 338 344 340 306 173 51 41 347 348 287 308 160 186 177 177 145 176 179 177 152 171 91 345 38 301 157 151 166 186 201 203 115 132 88
284 289 297 306 314 321 325 330 331 331 332 332 332 331 341 342 267 185 71 360 342 334 28 355 226 178 174 151 107 171 176 163 104 29 167 282 334 80 140 97 205 142 210 214 167 197 351
282 286 293 301 310 318 322 327 329 328 326 326 325 323 331 327 273 202 268 329 318 323 104 144 138 158 158 153 137 161 181 156 106 104 240 43 4 31 66 360 225 37 130 353 27 64 187
274 282 291 299 306 313 319 326 327 326 324 322 320 316 318 321 285 215 268 331 318 321 130 141 144 161 143 128 101 123 143 117 89 100 342 329 293 3 13 60 34 143 110 76 78 21 150
270 275 282 292 300 310 318 324 327 328 325 323 318 307 300 308 270 202 256 313 2 207 346 92 148 163 167 153 171 150 154 171 175 150 51 350 34 339 18 149 120 158 168 310 246 108 49
266 270 276 286 297 307 315 323 328 331 330 325 320 299 286 283 227 202 231 66 227 232 296 335 67 106 158 162 155 130 137 171 137 127 142 270 133 7 348 42 355 38 354 309 299 283 24
263 265 271 278 289 300 311 320 326 333 333 328 329 300 281 245 203 191 171 172 225 204 357 314 111 127 136 124 112 140 170 175 160 191 181 176 136 20 57 52 318 118 98 77 107 101 256
262 263 265 271 280 292 305 316 326 334 336 333 334 316 186 146 155 169 115 233 242 238 329 244 135 146 145 133 166 170 169 50 143 200 253 172 166 132 125 214 59 26 115 202 178 246 283
259 260 262 266 274 284 298 313 324 334 339 337 332 14 170 155 146 160 195 221 258 261 251 244 147 123 130 135 128 143 144 70 16 74 119 146 239 150 205 39 320 140 162 45 20 286 277
256 256 259 262 266 277 289 305 322 336 345 342 350 208 269 170 113 28 182 195 286 298 286 239 117 109 140 133 108 126 148 64 344 176 149 97 118 128 40 326 263 242 143 160 254 244 70
254 252 252 256 260 265 277 293 316 336 351 353 342 286 45 177 177 194 250 253 261 335 347 9 125 48 59 97 114 117 97 17 13 86 153 171 84 151 139 154 189 224 132 108 102 150 212
253 250 249 248 255 257 267 282 301 328 345 350 346 254 48 151 107 143 154 39 321 1 121 25 102 115 117 105 38 139 132 25 28 84 94 125 132 222 267 342 103 207 203 183 211 223 234
252 249 246 245 244 252 254 267 281 313 334 344 348 80 90 90 64 92 57 120 90 17 5 21 92 93 143 136 120 138 162 151 81 45 56 39 204 209 252 252 219 254 248 212 224 241 238
248 248 244 242 239 244 247 251 262 280 307 305 261 174 118 92 80 134 353 90 112 28 2 19 136 109 72 162 191 184 168 211 160 83 79 11 174 175 258 218 228 250 255 246 238 241 246
241 245 242 239 237 236 239 242 245 254 265 215 196 164 130 5 98 153 143 139 112 327 76 36 50 112 93 77 76 84 83 97 124 161 128 149 150 169 265 329 286 264 242 244 245 241 244
236 237 240 235 232 232 231 233 234 234 227 213 209 183 158 147 181 137 146 100 74 19 339 27 42 96 130 126 102 83 63 11 196 85 76 147 154 178 272 252 257 293 307 264 259 264 243
231 230 235 229 227 225 225 224 224 223 215 205 195 184 170 140 156 174 168 108 1 33 113 48 37 103 144 143 115 106 120 265 96 52 270 182 157 198 249 251 287 279 258 255 255 275 258
239 225 226 225 222 219 219 217 215 213 208 198 188 180 175 143 206 138 148 152 180 160 146 125 94 144 147 78 161 205 236 202 211 176 56 126 203 225 173 243 263 63 123 348 302 270 301
228 222 219 223 219 214 213 211 210 207 204 201 199 195 174 143 169 160 168 163 158 137 163 237 174 158 155 150 187 214 231 197 225 219 192 160 164 214 222 244 268 254 306 310 238 325 345
222 224 214 215 217 211 209 207 204 202 199 199 200 196 186 179 179 198 201 181 160 177 189 145 156 191 119 190 209 190 225 200 209 218 199 225 205 203 194 236 265 77 185 231 3 356 326
224 222 209 206 213 207 204 203 200 196 196 197 202 202 200 209 198 190 219 226 217 205 170 197 230 152 160 141 196 145 190 193 203 230 169 237 238 249 219 248 54 260 247 202 93 330 342